CAPE
60 150 45 27 12 0 0 3 3 17 0 4 0 0 0 0 62 69 26 0 0 0 0 0 0 0 0 0 0 0 0 0 0 0 0 0 0 0 0 0 0 0 0 0
6 13 6 6 21 2 6 4 1 10 0 10 2 0 0 0 7 11 81 37 0 0 0 0 0 0 0 0 0 0 0 0 0 0 0 0 0 0 0 0 0 0 0 0
46 1 1 5 6 3 6 5 0 6 1 0 17 2 0 0 0 0 48 89 38 0 0 0 0 0 0 0 0 0 0 0 0 0 0 0 0 0 0 0 0 0 0 0
27 23 3 13 2 6 0 1 0 18 38 3 10 0 19 0 0 0 2 46 11 0 0 0 0 0 0 0 0 0 0 0 0 0 0 0 0 0 0 0 0 0 0 0
0 60 39 7 4 4 0 0 2 7 19 12 1 5 1 0 0 0 29 8 0 0 0 0 0 0 0 0 0 0 1 0 0 0 0 0 0 0 0 0 0 0 0 0
0 26 71 18 1 0 0 0 0 8 19 1 6 4 0 0 0 0 1 1 1 0 0 0 0 0 0 0 1 1 0 0 0 0 0 0 0 0 0 0 1 2 2 1
0 47 8 15 25 5 0 0 0 0 0 0 3 2 0 0 0 0 0 0 0 1 0 2 3 5 4 3 1 0 0 0 0 0 0 0 0 1 1 1 1 0 0 0
1 15 24 32 8 3 4 0 0 0 0 0 0 0 0 0 0 0 0 0 0 0 0 1 1 1 3 0 0 0 1 4 3 1 0 0 0 0 0 0 0 0 0 0
0 0 31 9 24 1 7 4 1 1 0 0 0 4 0 1 1 0 0 0 0 0 0 0 0 0 1 1 1 2 3 0 0 0 0 0 0 0 0 0 0 0 0 0
7 0 0 24 14 7 8 0 2 1 0 0 0 0 0 0 2 2 1 0 0 0 0 0 1 1 1 1 0 0 0 0 0 0 0 0 0 0 0 0 0 0 0 0
7 25 0 1 0 4 2 6 3 0 0 0 0 1 0 0 0 0 0 0 0 0 1 2 2 1 1 0 0 0 0 0 0 0 0 0 0 0 0 0 0 0 0 0
9 5 6 2 0 0 0 1 16 0 1 0 0 0 0 0 0 0 0 0 0 0 1 1 0 0 0 0 0 0 0 0 0 0 0 0 0 0 0 0 0 0 0 0
2 0 0 1 0 0 0 0 0 0 0 0 0 0 0 0 0 0 0 0 0 1 1 0 0 0 0 0 0 0 0 0 0 0 0 0 0 0 0 0 0 0 0 0
43 2 1 0 0 0 0 1 0 1 0 0 0 0 0 0 0 0 0 0 0 0 0 0 0 0 0 0 0 0 0 0 0 0 0 0 0 0 0 0 0 0 0 0
13 1 1 7 3 0 0 0 0 0 0 0 0 0 0 0 0 0 0 0 1 2 2 0 0 0 0 0 0 0 0 0 0 0 0 0 0 0 0 0 0 0 0 0
4 1 0 0 0 0 0 0 0 0 0 0 0 0 0 0 0 0 0 0 0 0 0 0 0 0 0 0 0 0 0 0 0 0 0 0 0 0 0 0 0 0 0 0
9 0 0 0 0 0 0 0 0 0 0 0 0 0 0 0 0 0 0 0 0 0 0 0 0 0 0 0 0 0 0 0 0 0 0 0 0 0 0 0 0 0 0 0
2 0 0 0 0 0 0 0 0 0 0 0 0 0 0 0 0 0 0 0 0 0 0 0 0 0 0 0 0 0 0 0 0 0 0 0 0 0 0 0 0 0 0 0
9 10 0 0 0 0 0 0 0 0 0 0 0 0 0 0 0 0 0 0 0 0 0 0 0 0 0 0 0 0 0 0 0 0 0 0 0 0 0 0 0 0 0 0
3 8 0 0 0 0 0 0 0 0 0 0 0 0 0 0 0 0 0 0 0 0 0 0 0 0 0 0 0 0 0 0 0 0 0 0 0 0 0 0 0 0 0 0
0 3 0 0 0 0 0 0 0 0 0 0 0 0 0 0 0 0 0 0 0 0 0 0 0 0 0 0 0 0 0 0 0 0 0 0 0 0 0 0 0 0 0 0
0 0 0 0 0 0 0 0 0 0 0 0 0 0 0 0 0 0 0 0 0 0 0 0 0 0 0 0 0 0 0 0 0 0 0 0 0 0 0 0 0 0 0 0
0 0 0 0 0 0 0 0 0 0 0 0 0 0 0 0 0 0 0 0 0 0 0 0 0 0 0 0 0 0 0 0 0 0 0 0 0 0 0 0 0 0 0 0
0 0 0 0 0 0 0 0 0 0 0 0 0 0 0 0 0 0 0 0 0 0 0 0 0 0 0 0 0 0 0 0 0 0 0 0 0 0 0 0 0 0 0 0
0 0 0 0 0 0 0 0 0 0 0 0 0 0 0 0 0 0 0 0 0 0 0 0 0 0 0 0 0 0 0 0 0 0 0 0 0 0 0 0 0 0 0 0
0 0 0 0 0 0 0 0 0 0 0 0 0 0 0 0 0 0 0 0 0 0 0 0 0 0 0 0 0 0 0 0 0 0 0 0 0 0 0 0 0 0 0 0
CIN
-9 0 0 0 -1 -1 0 0 0 -2 0 -9 0 0 0 0 -127 -137 -187 0 0 0 0 0 0 0 0 0 0 0 0 0 0 0 0 0 0 0 0 0 0 0 0 0
-3 -12 0 0 0 0 0 0 0 -1 -3 -31 -5 0 0 0 -130 -181 -153 -169 0 0 0 0 0 0 0 0 0 0 0 0 0 0 0 0 0 0 0 0 0 0 0 0
-7 -1 -3 -5 0 0 0 0 0 0 -7 -8 -5 -1 0 0 0 0 -122 -136 -124 0 0 0 0 0 0 0 0 0 0 0 0 0 0 0 0 0 0 0 0 0 0 0
-4 -4 0 -7 0 0 0 0 0 0 0 0 -2 0 -1 -4 0 0 -36 -74 -47 0 0 0 0 0 0 0 0 0 0 0 0 0 0 0 0 0 0 0 0 0 0 0
0 -1 -5 0 0 0 0 0 0 0 0 0 0 -2 -1 -2 0 0 -64 -47 0 0 0 0 0 0 0 0 0 0 0 0 0 0 0 0 0 0 0 0 0 0 0 0
0 -35 -19 -29 -1 0 0 0 0 0 0 -1 0 -2 0 0 0 0 0 0 0 0 0 0 0 0 0 0 0 0 0 0 0 0 0 0 0 0 0 0 0 0 0 0
0 -14 -16 -5 0 0 0 0 0 0 0 0 0 0 0 0 0 0 0 0 0 0 0 0 0 0 0 0 0 0 0 0 0 0 0 0 0 0 0 0 0 0 0 0
-2 -17 -1 -4 -2 0 0 0 0 0 0 0 0 0 0 0 0 0 0 0 0 0 0 0 0 0 0 0 0 0 0 0 0 0 0 0 0 0 0 0 0 0 0 0
0 0 -15 -3 -6 -1 0 0 0 0 0 0 0 0 0 0 0 0 0 0 0 0 0 0 0 0 0 0 0 0 0 0 0 0 0 0 0 0 0 0 0 0 0 0
-8 0 0 -7 -9 -1 0 -3 0 0 0 0 0 0 0 0 0 0 0 0 0 0 0 0 0 0 0 0 0 0 0 0 0 0 0 0 0 0 0 0 0 0 0 0
-6 0 0 0 0 0 0 0 0 -1 0 0 0 0 0 0 0 0 0 0 0 0 0 0 0 0 0 0 0 0 0 0 0 0 0 0 0 0 0 0 0 0 0 0
-1 -1 0 0 0 0 0 -18 -5 -2 -2 0 0 0 0 0 0 0 0 0 0 0 0 0 0 0 0 0 0 0 0 0 0 0 0 0 0 0 0 0 0 0 0 0
0 0 0 0 0 0 0 0 0 0 0 0 -1 0 0 0 0 0 0 0 0 0 0 0 0 0 0 0 0 0 0 0 0 0 0 0 0 0 0 0 0 0 0 0
0 0 0 0 0 0 0 0 -13 -40 0 0 0 0 0 0 0 0 0 0 0 0 0 0 0 0 0 0 0 0 0 0 0 0 0 0 0 0 0 0 0 0 0 0
-4 -2 0 0 0 0 0 0 0 0 0 0 0 0 0 0 0 0 0 0 0 0 0 0 0 0 0 0 0 0 0 0 0 0 0 0 0 0 0 0 0 0 0 0
0 -1 0 0 0 0 0 0 0 0 0 0 0 0 0 0 0 0 0 0 0 0 0 0 0 0 0 0 0 0 0 0 0 0 0 0 0 0 0 0 0 0 0 0
0 0 0 0 0 0 0 0 0 0 0 0 0 0 0 0 0 0 0 0 0 0 0 0 0 0 0 0 0 0 0 0 0 0 0 0 0 0 0 0 0 0 0 0
0 0 0 0 0 0 0 0 0 0 0 0 0 0 0 0 0 0 0 0 0 0 0 0 0 0 0 0 0 0 0 0 0 0 0 0 0 0 0 0 0 0 0 0
0 0 0 0 0 0 0 0 0 0 0 0 0 0 0 0 0 0 0 0 0 0 0 0 0 0 0 0 0 0 0 0 0 0 0 0 0 0 0 0 0 0 0 0
0 0 0 0 -1 0 0 0 0 0 0 0 0 0 0 0 0 0 0 0 0 0 0 0 0 0 0 0 0 0 0 0 0 0 0 0 0 0 0 0 0 0 0 0
-3 0 0 0 0 0 0 0 0 0 0 0 0 0 0 0 0 0 0 0 0 0 0 0 0 0 0 0 0 0 0 0 0 0 0 0 0 0 0 0 0 0 0 0
0 0 0 0 0 0 0 0 0 0 0 0 0 0 0 0 0 0 0 0 0 0 0 0 0 0 0 0 0 0 0 0 0 0 0 0 0 0 0 0 0 0 0 0
0 0 0 0 0 0 0 0 0 0 0 0 0 0 0 0 0 0 0 0 0 0 0 0 0 0 0 0 0 0 0 0 0 0 0 0 0 0 0 0 0 0 0 0
0 0 0 0 0 0 0 0 0 0 0 0 0 0 0 0 0 0 0 0 0 0 0 0 0 0 0 0 0 0 0 0 0 0 0 0 0 0 0 0 0 0 0 0
0 0 0 0 0 0 0 0 0 0 0 0 0 0 0 0 0 0 0 0 0 0 0 0 0 0 0 0 0 0 0 0 0 0 0 0 0 0 0 0 0 0 0 0
0 0 0 0 0 0 0 0 0 0 0 0 0 0 0 0 0 0 0 0 0 0 0 0 0 0 0 0 0 0 0 0 0 0 0 0 0 0 0 0 0 0 0 0
Wind_Speed
7 9 12 12 17 16 6 4 14 18 15 14 16 14 9 10 11 10 11 11 12 12 6 8 10 10 8 6 8 8 9 7 9 7 5 5 5 5 6 7 10 9 8 9
8 14 11 8 12 19 22 6 12 17 14 17 15 14 15 7 11 11 16 13 13 9 6 7 8 8 7 6 6 6 5 7 7 6 6 6 5 6 7 6 9 9 10 9
12 8 15 9 4 7 6 9 11 13 9 9 15 14 5 4 2 6 9 13 12 14 13 8 8 8 9 8 6 8 7 8 8 11 9 9 9 6 5 6 7 9 10 10
8 9 16 10 7 5 6 3 5 15 18 14 18 10 18 13 8 4 7 13 13 12 9 8 9 8 9 8 8 8 9 9 8 9 10 10 8 7 6 6 6 7 10 11
6 4 15 14 6 9 4 2 8 17 16 9 17 11 8 24 18 7 8 11 12 12 12 12 10 10 8 10 9 8 10 11 11 11 9 10 12 9 7 7 9 7 7 11
10 4 7 3 8 9 2 6 18 9 10 13 9 14 12 22 30 12 8 9 11 12 12 12 10 10 8 9 9 9 12 11 11 13 15 15 14 8 4 7 4 6 5 5
4 4 4 5 4 8 3 6 5 3 4 3 19 12 3 12 23 22 17 14 12 11 11 12 11 9 7 11 10 10 12 13 11 14 12 13 12 9 6 6 6 5 4 2
3 5 2 4 2 5 4 5 1 4 2 3 10 8 4 3 6 5 15 14 14 11 9 10 10 11 8 10 11 12 12 14 10 11 10 7 10 6 7 5 6 3 3 4
2 4 2 4 2 2 4 3 6 2 3 2 5 2 1 5 8 12 14 15 13 13 10 10 9 10 11 10 12 12 11 11 11 9 10 8 8 9 7 7 6 3 4 6
4 5 1 2 1 4 3 6 3 1 5 3 1 2 3 6 7 10 12 12 12 10 11 10 9 9 11 9 10 11 10 10 9 10 9 8 8 7 7 7 6 5 6 6
1 3 5 2 1 2 2 3 4 3 1 3 2 3 4 5 11 11 9 10 11 11 11 10 10 9 8 10 10 10 10 10 9 8 9 8 7 7 7 7 6 5 6 6
3 2 4 1 1 1 1 3 1 3 3 2 1 3 5 4 10 11 11 10 9 10 11 10 10 9 7 10 9 9 8 9 7 8 9 9 7 7 7 7 6 5 6 5
3 3 3 0 2 2 1 2 3 2 2 2 2 3 5 5 9 9 13 10 9 10 11 10 9 9 8 9 9 8 7 8 8 8 9 7 6 7 6 6 5 5 6 5
3 3 1 0 2 1 4 3 1 4 3 3 2 1 3 1 9 10 10 10 10 11 13 11 9 8 8 8 9 8 8 7 7 7 7 7 6 6 5 5 5 5 5 6
6 2 3 3 3 3 1 4 3 3 1 2 2 2 3 5 5 7 11 12 12 11 10 11 10 9 9 9 8 7 7 7 7 7 6 6 6 5 6 5 5 5 5 4
7 3 4 5 6 6 3 2 4 2 1 2 0 1 3 5 8 5 8 11 12 12 13 12 9 10 11 11 9 8 8 7 7 7 6 5 6 5 5 5 4 5 4 4
5 3 4 4 6 7 5 4 5 2 2 4 3 1 5 3 5 9 11 13 14 14 16 16 14 12 11 11 10 10 9 7 7 7 6 5 5 5 5 5 5 4 5 4
6 3 1 2 5 3 4 1 2 5 5 6 1 1 3 4 4 6 7 12 12 14 15 16 13 12 11 11 10 9 8 7 7 6 6 5 5 5 4 4 4 4 3 3
2 3 2 1 2 6 3 1 3 4 2 3 6 5 1 5 3 1 7 12 14 14 13 12 11 11 11 12 11 11 9 8 7 7 7 6 6 5 5 5 5 3 3 2
3 3 3 2 1 4 5 2 2 2 5 3 1 2 4 5 2 4 2 7 8 8 8 10 11 9 11 11 13 13 11 10 9 8 7 6 6 6 5 5 4 2 2 3
1 2 3 1 2 9 6 4 3 7 3 2 3 3 2 4 3 2 5 3 5 5 9 10 11 12 12 13 13 12 11 11 7 7 6 6 5 5 4 4 3 3 2 2
5 5 3 2 3 7 2 2 3 2 1 1 3 3 0 3 3 1 2 4 6 8 8 8 10 9 10 12 12 11 9 6 7 7 6 5 5 3 3 4 2 1 3 3
2 5 4 8 6 3 2 1 1 2 2 1 3 2 2 4 2 2 5 6 5 7 7 6 9 10 8 9 9 11 7 7 7 7 6 5 5 3 3 3 3 1 1 2
4 3 3 3 1 5 4 4 4 4 2 2 2 4 4 4 6 4 3 5 5 5 6 5 9 9 8 6 6 6 9 7 8 6 5 5 5 3 2 1 2 2 1 1
5 4 5 6 8 5 5 4 5 2 3 1 1 0 1 2 2 3 4 5 5 5 4 5 7 8 8 7 6 6 8 8 7 5 5 4 3 3 3 2 2 1 2 3
5 7 6 7 2 2 1 3 4 3 3 4 4 2 1 0 3 3 3 4 4 4 3 4 4 7 7 7 7 6 6 8 7 5 4 4 3 2 2 1 2 5 7 7
Wind_Direction
265 246 226 267 222 216 217 270 323 206 203 196 226 209 221 184 193 176 183 187 187 185 184 182 181 176 158 157 158 165 157 150 131 127 122 98 88 81 64 58 51 47 51 52
270 253 230 348 274 225 214 268 293 275 189 176 213 217 222 155 204 190 184 191 173 141 125 105 105 100 95 87 99 101 113 132 146 130 116 114 117 88 81 69 59 52 49 48
252 293 312 193 341 146 218 228 262 258 226 187 181 230 229 222 252 184 195 186 180 160 144 123 98 93 97 85 74 97 83 94 104 111 105 101 102 94 80 65 57 39 48 37
236 240 250 192 167 243 155 74 322 266 227 200 183 216 223 205 189 218 171 165 157 142 123 122 119 100 99 88 76 75 82 81 99 120 125 131 124 120 99 90 82 71 48 49
241 217 219 184 189 197 175 80 313 270 240 190 193 219 182 217 216 193 161 154 151 145 141 129 115 106 106 100 91 84 83 76 77 86 93 105 101 102 111 106 84 56 61 74
244 291 257 236 144 166 61 19 293 209 242 216 185 194 196 191 212 189 154 146 140 138 131 115 112 112 115 100 99 97 92 86 91 91 97 97 99 101 132 104 86 86 54 62
312 202 255 165 149 109 109 76 288 194 215 243 169 200 161 190 202 192 166 154 136 133 133 135 133 131 137 113 107 103 103 99 102 105 106 115 111 111 93 82 92 106 86 58
170 303 243 179 227 164 117 127 260 312 278 127 165 198 186 62 323 153 154 137 126 131 136 136 139 130 126 110 111 111 111 109 100 102 91 65 93 100 96 109 96 82 109 84
345 285 126 316 207 176 127 156 150 309 221 238 148 175 215 88 64 103 130 136 138 135 131 134 135 130 122 125 119 116 112 103 100 98 99 98 98 102 110 97 92 113 104 94
326 313 359 221 81 188 164 159 127 105 323 355 33 141 86 173 146 128 138 137 135 130 132 137 132 133 115 114 102 100 99 95 99 104 102 106 111 107 103 100 113 100 85 87
272 295 295 3 42 117 314 149 99 114 260 308 15 37 325 169 154 147 145 144 142 146 141 141 123 107 114 107 103 105 105 112 114 110 112 110 99 101 106 104 93 91 92 91
264 254 289 196 287 331 20 35 197 155 230 323 80 343 322 83 143 142 144 146 140 134 132 128 120 127 127 113 113 106 111 119 121 118 111 104 110 111 101 99 104 106 107 99
300 228 268 328 296 341 324 96 269 103 72 216 94 306 2 61 127 140 134 139 140 138 139 130 137 136 131 118 119 126 130 124 117 115 112 111 118 106 108 111 112 110 112 109
269 300 296 176 38 106 205 149 238 94 113 171 227 311 124 120 136 138 139 141 144 155 159 158 151 145 132 130 132 134 125 124 125 116 116 120 120 120 121 118 115 114 116 114
345 268 337 18 346 286 249 131 159 158 188 131 334 17 65 185 179 157 146 144 150 159 169 174 161 151 143 139 137 133 131 135 128 121 123 130 121 122 121 116 116 114 113 119
343 324 341 354 345 13 11 89 189 217 96 294 269 341 34 69 100 126 156 158 164 174 179 181 168 159 158 155 152 146 144 142 133 130 134 132 128 132 120 123 127 123 121 122
326 359 24 308 350 337 7 240 194 182 199 168 211 165 150 98 148 178 179 185 185 186 187 183 175 174 165 162 157 159 153 139 132 131 137 139 138 140 140 142 134 132 150 154
307 316 23 252 10 25 237 291 220 207 224 222 325 90 75 123 190 188 185 190 193 189 187 189 177 169 166 154 152 138 137 133 131 139 141 145 154 141 135 139 151 159 151 157
287 313 8 32 183 279 319 85 159 189 337 238 221 217 82 65 76 264 190 197 199 194 188 185 174 164 156 155 141 131 134 139 148 161 165 161 154 145 160 176 169 153 146 171
274 266 103 57 95 207 255 285 262 211 23 351 344 236 196 91 63 267 188 192 181 171 162 154 152 145 144 147 145 147 157 161 177 171 168 155 151 167 176 171 162 148 167 192
166 227 182 147 233 284 244 265 289 68 246 51 22 9 130 141 200 306 330 147 145 133 136 125 146 157 155 151 153 159 162 181 163 141 147 149 155 151 166 147 142 161 171 146
182 139 188 94 14 301 214 80 91 219 255 117 87 42 74 227 274 353 47 112 122 128 125 139 139 142 149 154 154 154 170 143 139 135 135 146 124 135 138 130 141 160 181 188
278 191 189 184 214 263 272 40 349 195 181 162 68 67 10 323 316 95 119 127 134 137 133 123 134 130 138 152 156 150 154 137 128 134 141 137 111 115 138 145 170 151 163 173
246 188 218 16 282 237 262 249 228 211 266 12 36 33 33 339 340 22 66 110 119 123 129 124 129 137 140 136 134 127 141 137 135 143 141 123 141 153 130 111 154 169 176 210
204 128 195 269 285 257 258 261 300 262 244 263 104 60 316 283 216 169 156 155 154 142 133 144 143 145 145 140 133 128 139 132 133 135 143 141 146 165 169 186 184 188 219 197
190 194 172 217 242 199 292 343 352 342 278 232 215 227 73 122 177 147 156 156 139 137 118 112 101 127 139 131 119 126 134 140 140 143 152 162 151 146 145 158 304 272 248 261